Terminal Aerodrome Forecast
Issued by NWS Omaha/Valley, NE

Home | Current Version | Previous Version | Graphics & Text | Print | Product List | Glossary On
Versions: 1 2 3 4 5 6 7 8 9 10 11 12 13 14 15 16
000
FTUS43 KOAX 181725
TAFOFK
TAF
KOFK 181725Z 1818/1918 17018G28KT P6SM SKC
     FM190100 17015G23KT P6SM SCT250
     FM190600 17018KT P6SM SKC WS020/21041KT
     FM191500 19013KT P6SM SCT250=

USA.gov is the U.S. government's official web portal to all federal, state and local government web resources and services.